Location: Bothwell
(41.7170°N, 112.2589°W)
Time: 01:22:03
(UTC+00:00)

STARLINK-37314 - Pass Details

Date: 19 April 2026
Orbit: 262 x 263 km, 97.3° (Epoch: 18 April)

Event Time Altitude Azimuth Distance (km) Brightness Sun altitude
Rises 04:05:19 0° 12° (NNE) 1,895 5.7 -19.5°
Reaches altitude 10° 04:07:08 10° 12° (NNE) 1,081 4.4 -19.8°
Enters shadow 04:07:14 11° 12° (NNE) 1,036 4.3 -19.8°
